When you browse on this site, cookies collect data to enhance your experience and personalize the content and advertising you see.
Visit our Privacy Policy to learn more. By continuing to use the site, you agree to this use of cookies and data.
  • In Spain
  • List of Countries
  • For 7 days
  • Water Temperature
  • Weather Map
  • Weather Widgets
  • user-avatar
    Login

    Hourly Weather Linares

    Today, 20 January, Monday

    Time Temperature Precipitation Wind Pressure Humidity
    00:00 +1°C° 0 mm 4 mps 727 mmHg 73%
    01:00 +1°C° 0 mm 5 mps 726 mmHg 73%
    02:00 +1°C° 0 mm 5 mps 726 mmHg 73%
    03:00 +1°C° 0 mm 6 mps 725 mmHg 72%
    04:00 +1°C° 0 mm 6 mps 725 mmHg 73%
    05:00 +1°C° 0 mm 6 mps 725 mmHg 75%
    06:00 0°C° 0 mm 7 mps 725 mmHg 76%
    07:00 +2°C° 0.1 mm 7 mps 725 mmHg 77%
    08:00 +3°C° 0.1 mm 7 mps 725 mmHg 77%
    09:00 +3°C° 0.1 mm 7 mps 724 mmHg 78%
    10:00 +4°C° 0.1 mm 8 mps 724 mmHg 74%
    11:00 +6°C° 0.1 mm 8 mps 724 mmHg 70%
    12:00 +7°C° 0.1 mm 9 mps 724 mmHg 66%
    13:00 +7°C° 0 mm 8 mps 724 mmHg 66%
    14:00 +7°C° 0 mm 8 mps 724 mmHg 65%
    15:00 +7°C° 0 mm 8 mps 723 mmHg 64%
    16:00 +6°C° 0 mm 7 mps 723 mmHg 68%
    17:00 +7°C° 0 mm 6 mps 724 mmHg 72%
    18:00 +6°C° 0 mm 4 mps 724 mmHg 76%
    19:00 +6°C° 0 mm 4 mps 724 mmHg 78%
    20:00 +5°C° 0 mm 4 mps 724 mmHg 80%
    21:00 +5°C° 0 mm 4 mps 724 mmHg 82%
    22:00 +5°C° 0 mm 4 mps 724 mmHg 83%
    23:00 +5°C° 0 mm 3 mps 724 mmHg 85%

    Tomorrow, 21 January, Tuesday

    Time Temperature Precipitation Wind Pressure Humidity
    00:00 +4°C° 0 mm 3 mps 724 mmHg 87%
    01:00 +4°C° 0 mm 3 mps 723 mmHg 87%
    02:00 +5°C° 0 mm 2 mps 723 mmHg 88%
    03:00 +5°C° 0 mm 2 mps 722 mmHg 89%
    04:00 +5°C° 0 mm 2 mps 722 mmHg 88%
    05:00 +5°C° 0 mm 3 mps 722 mmHg 87%
    06:00 +5°C° 0 mm 3 mps 722 mmHg 86%
    07:00 +5°C° 0.1 mm 3 mps 722 mmHg 85%
    08:00 +7°C° 0.1 mm 3 mps 722 mmHg 84%
    09:00 +7°C° 0.1 mm 3 mps 722 mmHg 83%
    10:00 +8°C° 0.3 mm 3 mps 722 mmHg 81%
    11:00 +9°C° 0.3 mm 3 mps 721 mmHg 78%
    12:00 +8°C° 0.3 mm 4 mps 721 mmHg 76%
    13:00 +9°C° 0.4 mm 3 mps 721 mmHg 76%
    14:00 +9°C° 0.4 mm 3 mps 721 mmHg 77%
    15:00 +9°C° 0.4 mm 2 mps 720 mmHg 77%
    16:00 +9°C° 0 mm 2 mps 721 mmHg 79%
    17:00 +8°C° 0 mm 2 mps 721 mmHg 82%
    18:00 +7°C° 0 mm 2 mps 721 mmHg 85%
    19:00 +7°C° 0 mm 2 mps 721 mmHg 85%
    20:00 +6°C° 0 mm 2 mps 722 mmHg 86%
    21:00 +6°C° 0 mm 2 mps 722 mmHg 87%
    22:00 +6°C° 0.1 mm 2 mps 722 mmHg 87%
    23:00 +6°C° 0.1 mm 2 mps 723 mmHg 87%

    Day after tomorrow, 22 January, Wednesday

    Time Temperature Precipitation Wind Pressure Humidity
    00:00 +6°C° 0.1 mm 2 mps 723 mmHg 87%
    01:00 +6°C° 0.1 mm 2 mps 723 mmHg 88%
    02:00 +6°C° 0.1 mm 2 mps 723 mmHg 88%
    03:00 +6°C° 0.1 mm 2 mps 723 mmHg 88%
    04:00 +5°C° 0 mm 2 mps 723 mmHg 89%
    05:00 +5°C° 0 mm 2 mps 723 mmHg 89%
    06:00 +5°C° 0 mm 2 mps 723 mmHg 89%
    07:00 +5°C° 0 mm 2 mps 723 mmHg 86%
    08:00 +6°C° 0 mm 2 mps 724 mmHg 83%
    09:00 +7°C° 0 mm 2 mps 724 mmHg 80%
    10:00 +9°C° 0 mm 3 mps 724 mmHg 73%
    11:00 +10°C° 0 mm 3 mps 724 mmHg 66%
    12:00 +12°C° 0 mm 3 mps 725 mmHg 59%
    13:00 +12°C° 0 mm 3 mps 724 mmHg 57%
    14:00 +12°C° 0 mm 3 mps 724 mmHg 55%
    15:00 +12°C° 0 mm 3 mps 723 mmHg 53%
    16:00 +12°C° 0 mm 2 mps 723 mmHg 60%
    17:00 +9°C° 0 mm 2 mps 723 mmHg 66%
    18:00 +8°C° 0 mm 2 mps 724 mmHg 73%
    19:00 +7°C° 0 mm 2 mps 724 mmHg 75%
    20:00 +7°C° 0 mm 2 mps 724 mmHg 77%
    21:00 +7°C° 0 mm 2 mps 725 mmHg 79%
    22:00 +7°C° 0.1 mm 2 mps 725 mmHg 80%
    23:00 +8°C° 0.1 mm 1 mps 725 mmHg 81%

    23 January, Thursday

    Time Temperature Precipitation Wind Pressure Humidity
    00:00 +8°C° 0.1 mm 1 mps 725 mmHg 82%
    01:00 +7°C° 0.1 mm 1 mps 725 mmHg 83%
    02:00 +6°C° 0.1 mm 2 mps 725 mmHg 83%
    03:00 +6°C° 0.1 mm 2 mps 724 mmHg 84%
    04:00 +6°C° 0 mm 2 mps 724 mmHg 84%
    05:00 +4°C° 0 mm 3 mps 724 mmHg 84%
    06:00 +4°C° 0 mm 3 mps 724 mmHg 84%
    07:00 +5°C° 0 mm 3 mps 724 mmHg 81%
    08:00 +7°C° 0 mm 3 mps 725 mmHg 78%
    09:00 +7°C° 0 mm 3 mps 725 mmHg 75%
    10:00 +9°C° 0 mm 3 mps 725 mmHg 69%
    11:00 +10°C° 0 mm 3 mps 726 mmHg 63%
    12:00 +12°C° 0 mm 3 mps 726 mmHg 57%
    13:00 +11°C° 0.3 mm 3 mps 725 mmHg 63%
    14:00 +12°C° 0.3 mm 2 mps 725 mmHg 69%
    15:00 +10°C° 0.3 mm 2 mps 725 mmHg 75%
    16:00 +9°C° 0 mm 2 mps 725 mmHg 78%
    17:00 +10°C° 0 mm 1 mps 725 mmHg 81%
    18:00 +9°C° 0 mm 1 mps 726 mmHg 84%
    19:00 +9°C° 0.1 mm 1 mps 726 mmHg 84%
    20:00 +8°C° 0.1 mm 2 mps 726 mmHg 84%
    21:00 +7°C° 0.1 mm 2 mps 727 mmHg 84%
    22:00 +7°C° 0 mm 2 mps 727 mmHg 84%
    23:00 +7°C° 0 mm 2 mps 727 mmHg 84%

    24 January, Friday

    Time Temperature Precipitation Wind Pressure Humidity
    00:00 +7°C° 0 mm 2 mps 727 mmHg 84%
    01:00 +6°C° 0 mm 2 mps 727 mmHg 84%
    02:00 +6°C° 0 mm 2 mps 727 mmHg 84%
    03:00 +6°C° 0 mm 2 mps 727 mmHg 84%
    04:00 +6°C° 0 mm 2 mps 727 mmHg 84%
    05:00 +6°C° 0 mm 2 mps 727 mmHg 83%
    06:00 +5°C° 0 mm 2 mps 727 mmHg 83%
    07:00 +6°C° 0 mm 2 mps 727 mmHg 79%
    08:00 +7°C° 0 mm 2 mps 727 mmHg 76%
    09:00 +8°C° 0 mm 2 mps 728 mmHg 72%
    10:00 +10°C° 0 mm 2 mps 728 mmHg 65%
    11:00 +12°C° 0 mm 2 mps 728 mmHg 58%
    12:00 +14°C° 0 mm 2 mps 728 mmHg 50%
    13:00 +15°C° 0 mm 2 mps 727 mmHg 50%
    14:00 +15°C° 0 mm 2 mps 727 mmHg 51%
    15:00 +15°C° 0 mm 2 mps 727 mmHg 51%
    16:00 +13°C° 0.1 mm 1 mps 727 mmHg 60%
    17:00 +12°C° 0.1 mm 1 mps 727 mmHg 70%
    18:00 +10°C° 0.1 mm 1 mps 727 mmHg 80%
    19:00 +10°C° 0 mm 1 mps 727 mmHg 81%
    20:00 +10°C° 0 mm 1 mps 727 mmHg 82%
    21:00 +9°C° 0 mm 1 mps 727 mmHg 83%
    22:00 +9°C° 0 mm 1 mps 728 mmHg 84%
    23:00 +9°C° 0 mm 1 mps 728 mmHg 84%

    25 January, Saturday

    Time Temperature Precipitation Wind Pressure Humidity
    00:00 +8°C° 0 mm 1 mps 728 mmHg 85%
    01:00 +8°C° 0 mm 1 mps 727 mmHg 83%
    02:00 +9°C° 0 mm 1 mps 727 mmHg 81%
    03:00 +9°C° 0 mm 1 mps 727 mmHg 79%
    04:00 +8°C° 0 mm 2 mps 727 mmHg 79%
    05:00 +7°C° 0 mm 2 mps 727 mmHg 78%
    06:00 +7°C° 0 mm 2 mps 727 mmHg 78%
    07:00 +8°C° 0 mm 2 mps 727 mmHg 75%
    08:00 +9°C° 0 mm 2 mps 727 mmHg 71%
    09:00 +9°C° 0 mm 2 mps 728 mmHg 68%
    10:00 +12°C° 0 mm 2 mps 728 mmHg 62%
    11:00 +13°C° 0 mm 1 mps 728 mmHg 55%
    12:00 +15°C° 0 mm 1 mps 728 mmHg 48%
    13:00 +15°C° 0 mm 1 mps 728 mmHg 51%
    14:00 +15°C° 0 mm 2 mps 727 mmHg 53%
    15:00 +15°C° 0 mm 2 mps 727 mmHg 56%
    16:00 +13°C° 0 mm 1 mps 727 mmHg 62%
    17:00 +12°C° 0 mm 1 mps 727 mmHg 68%
    18:00 +10°C° 0 mm 1 mps 727 mmHg 75%
    19:00 +10°C° 0 mm 1 mps 728 mmHg 75%
    20:00 +10°C° 0 mm 1 mps 728 mmHg 76%
    21:00 +9°C° 0 mm 1 mps 728 mmHg 77%
    22:00 +9°C° 0 mm 1 mps 729 mmHg 78%
    23:00 +9°C° 0 mm 1 mps 729 mmHg 79%
    Show more